TimeEDT,TemperatureF,Dew PointF,Humidity,Sea Level PressureIn,VisibilityMPH,Wind Direction,Wind SpeedMPH,Gust SpeedMPH,PrecipitationIn,Events,Conditions,WindDirDegrees,DateUTC
12:15 AM,61.0,57.4,88,30.04,10.0,Calm,Calm,-,N/A,,Overcast,0,2012-10-04 04:15:00
12:36 AM,61.3,57.2,86,30.04,7.0,SSW,4.6,-,N/A,Rain,Light Rain,210,2012-10-04 04:36:00
12:55 AM,60.8,57.4,88,30.04,10.0,South,3.5,-,N/A,,Overcast,180,2012-10-04 04:55:00
1:15 AM,60.6,57.4,89,30.04,10.0,Calm,Calm,-,N/A,,Overcast,0,2012-10-04 05:15:00
1:35 AM,60.6,57.6,90,30.04,10.0,SSE,3.5,-,N/A,,Overcast,150,2012-10-04 05:35:00
1:55 AM,61.0,57.0,87,30.04,10.0,South,6.9,-,N/A,,Overcast,190,2012-10-04 05:55:00
2:15 AM,60.3,57.6,91,30.05,5.0,SW,9.2,16.1,N/A,,Heavy Drizzle,220,2012-10-04 06:15:00
2:35 AM,59.5,58.1,95,30.04,7.0,South,4.6,-,N/A,Rain,Light Rain,190,2012-10-04 06:35:00
2:55 AM,59.5,58.1,95,30.03,10.0,South,3.5,-,N/A,,Overcast,170,2012-10-04 06:55:00
3:15 AM,59.5,57.6,93,30.03,10.0,SSE,4.6,-,N/A,,Overcast,160,2012-10-04 07:15:00
3:35 AM,59.5,57.0,91,30.03,10.0,South,5.8,-,N/A,,Overcast,170,2012-10-04 07:35:00
3:55 AM,59.5,56.3,89,30.02,10.0,South,8.1,-,N/A,,Overcast,190,2012-10-04 07:55:00
4:16 AM,59.9,55.6,86,30.02,10.0,South,9.2,-,N/A,,Overcast,180,2012-10-04 08:16:00
4:35 AM,59.4,55.4,87,30.02,10.0,SSW,6.9,-,N/A,,Overcast,200,2012-10-04 08:35:00
4:55 AM,59.0,55.0,87,30.02,10.0,SSW,5.8,-,N/A,,Overcast,200,2012-10-04 08:55:00
5:15 AM,59.0,55.0,87,30.03,10.0,SSW,6.9,-,N/A,,Overcast,200,2012-10-04 09:15:00
5:35 AM,58.5,55.0,88,30.03,10.0,SSW,5.8,-,N/A,,Overcast,200,2012-10-04 09:35:00
5:56 AM,58.5,55.0,88,30.04,10.0,SSW,6.9,-,N/A,,Overcast,200,2012-10-04 09:56:00
6:15 AM,58.6,55.0,88,30.04,10.0,SSW,4.6,-,N/A,,Overcast,200,2012-10-04 10:15:00
6:35 AM,58.1,54.9,89,30.04,10.0,SSW,8.1,-,N/A,,Scattered Clouds,200,2012-10-04 10:35:00
6:55 AM,58.3,54.9,88,30.04,10.0,SW,4.6,-,N/A,,Scattered Clouds,220,2012-10-04 10:55:00
7:15 AM,58.1,55.4,91,30.04,10.0,SSW,4.6,-,N/A,,Scattered Clouds,200,2012-10-04 11:15:00
7:35 AM,57.7,54.9,90,30.04,10.0,SSW,6.9,-,N/A,,Scattered Clouds,200,2012-10-04 11:35:00
7:55 AM,57.4,54.7,91,30.04,10.0,SSW,3.5,-,N/A,,Clear,200,2012-10-04 11:55:00
8:15 AM,57.7,54.9,90,30.04,10.0,SSW,4.6,-,N/A,,Clear,210,2012-10-04 12:15:00
8:35 AM,59.0,55.6,88,30.04,10.0,South,6.9,-,N/A,,Clear,190,2012-10-04 12:35:00
8:55 AM,60.4,55.9,85,30.05,10.0,SW,6.9,-,N/A,,Clear,220,2012-10-04 12:55:00
9:15 AM,60.3,56.3,87,30.05,10.0,SSW,8.1,-,N/A,,Scattered Clouds,210,2012-10-04 13:15:00
9:36 AM,60.1,55.9,86,30.05,10.0,SSW,8.1,-,N/A,,Scattered Clouds,200,2012-10-04 13:36:00
9:55 AM,61.7,56.3,82,30.05,10.0,SSW,8.1,-,N/A,,Mostly Cloudy,200,2012-10-04 13:55:00
10:15 AM,61.0,56.1,84,30.05,10.0,SW,9.2,-,N/A,,Overcast,220,2012-10-04 14:15:00
10:36 AM,61.7,56.7,84,30.06,10.0,SSW,8.1,-,N/A,,Overcast,210,2012-10-04 14:36:00
10:55 AM,62.2,57.2,84,30.07,10.0,SW,8.1,-,N/A,,Overcast,220,2012-10-04 14:55:00
11:15 AM,63.1,57.4,81,30.07,10.0,SW,11.5,-,N/A,,Overcast,220,2012-10-04 15:15:00
11:35 AM,64.4,57.6,78,30.07,10.0,SSW,9.2,-,N/A,,Overcast,210,2012-10-04 15:35:00
11:55 AM,65.5,57.6,76,30.06,10.0,SW,9.2,-,N/A,,Overcast,230,2012-10-04 15:55:00
12:15 PM,68.2,56.1,65,30.06,10.0,WSW,11.5,20.7,N/A,,Overcast,240,2012-10-04 16:15:00
12:35 PM,70.7,55.2,58,30.05,10.0,WSW,15.0,18.4,N/A,,Scattered Clouds,250,2012-10-04 16:35:00
12:55 PM,72.3,54.3,53,30.04,10.0,WSW,13.8,18.4,N/A,,Clear,240,2012-10-04 16:55:00
1:15 PM,73.8,53.2,49,30.04,10.0,WSW,12.7,19.6,N/A,,Clear,240,2012-10-04 17:15:00
1:35 PM,74.7,51.8,45,30.03,10.0,WSW,11.5,21.9,N/A,,Clear,250,2012-10-04 17:35:00
1:55 PM,75.4,50.7,42,30.02,10.0,SW,13.8,19.6,N/A,,Clear,230,2012-10-04 17:55:00
2:35 PM,76.8,49.6,38,30.01,10.0,SW,15.0,18.4,N/A,,Clear,230,2012-10-04 18:35:00
2:55 PM,77.7,47.7,35,30.01,10.0,SW,13.8,19.6,N/A,,Clear,230,2012-10-04 18:55:00
3:16 PM,77.2,47.5,35,30.00,10.0,SW,16.1,23.0,N/A,,Scattered Clouds,220,2012-10-04 19:16:00
3:35 PM,77.4,47.8,35,29.99,10.0,WSW,10.4,18.4,N/A,,Scattered Clouds,240,2012-10-04 19:35:00
3:55 PM,77.9,47.5,34,29.99,10.0,SSW,15.0,20.7,N/A,,Scattered Clouds,210,2012-10-04 19:55:00
4:15 PM,77.9,47.3,34,29.99,10.0,SW,12.7,21.9,N/A,,Scattered Clouds,220,2012-10-04 20:15:00
4:35 PM,77.9,46.8,33,29.99,10.0,WSW,16.1,24.2,N/A,,Clear,240,2012-10-04 20:35:00
4:55 PM,77.5,46.6,33,29.99,10.0,WSW,15.0,21.9,N/A,,Clear,240,2012-10-04 20:55:00
5:15 PM,77.4,46.8,34,29.99,10.0,SW,13.8,20.7,N/A,,Clear,230,2012-10-04 21:15:00
5:35 PM,77.2,47.3,35,29.99,10.0,SW,12.7,19.6,N/A,,Scattered Clouds,220,2012-10-04 21:35:00
5:55 PM,76.3,47.7,36,29.99,10.0,SSW,13.8,20.7,N/A,,Scattered Clouds,200,2012-10-04 21:55:00
6:15 PM,75.2,48.2,38,29.99,10.0,SSW,8.1,-,N/A,,Scattered Clouds,200,2012-10-04 22:15:00
6:35 PM,73.8,48.6,41,29.98,10.0,SSW,6.9,-,N/A,,Clear,200,2012-10-04 22:35:00
6:55 PM,72.9,49.1,43,29.98,10.0,South,6.9,-,N/A,,Scattered Clouds,190,2012-10-04 22:55:00
7:15 PM,72.3,49.1,44,29.98,10.0,SSW,6.9,-,N/A,,Scattered Clouds,200,2012-10-04 23:15:00
7:35 PM,72.3,49.1,44,29.98,10.0,South,3.5,-,N/A,,Mostly Cloudy,190,2012-10-04 23:35:00
7:55 PM,71.8,49.1,45,29.97,10.0,South,5.8,-,N/A,,Overcast,170,2012-10-04 23:55:00
8:15 PM,71.6,49.1,45,29.97,10.0,South,4.6,-,N/A,,Overcast,170,2012-10-05 00:15:00
8:35 PM,71.1,49.5,46,29.97,10.0,South,6.9,-,N/A,,Overcast,190,2012-10-05 00:35:00
8:55 PM,69.3,54.5,59,29.99,10.0,SW,9.2,23.0,N/A,Rain,Light Rain,220,2012-10-05 00:55:00
10:16 PM,66.9,57.2,71,30.00,10.0,WSW,11.5,17.3,N/A,,Overcast,240,2012-10-05 02:16:00
10:35 PM,63.7,61.0,91,30.01,5.0,WSW,20.7,27.6,N/A,Rain,Rain,240,2012-10-05 02:35:00
10:55 PM,62.6,60.8,94,30.01,5.0,SW,11.5,18.4,N/A,Rain,Heavy Rain,230,2012-10-05 02:55:00
11:15 PM,62.6,61.0,94,30.00,10.0,SSW,8.1,-,N/A,Rain,Light Rain,210,2012-10-05 03:15:00
11:35 PM,62.1,60.8,96,30.00,10.0,SW,9.2,-,N/A,,Mostly Cloudy,220,2012-10-05 03:35:00
11:55 PM,62.1,60.1,93,29.99,10.0,SW,10.4,16.1,N/A,,Mostly Cloudy,230,2012-10-05 03:55:00